Weather History for VIAR - October, 2012

Change the Weather History Date:

Monday, October 8, 2012

  Actual Average Record
Temperature  
Mean Temperature 78 °F -  
Max Temperature 92 °F 88 °F 95 °F (2000)
Min Temperature 63 °F 65 °F 63 °F (2012)
Cooling Degree Days 12    
Growing Degree Days 28 (Base 50)    
Moisture  
Dew Point 67 °F    
Average Humidity 66    
Maximum Humidity 100    
Minimum Humidity 27    
Precipitation  
Precipitation 0.00 in - - ()
Sea Level Pressure  
Sea Level Pressure 29.86 in    
Wind  
Wind Speed 1 mph ()    
Max Wind Speed 6 mph    
Max Gust Speed -    
Visibility 2.3 miles    
Events      
Averages and records for this station are not official NWS values.
T = Trace of Precipitation, MM = Missing Value Source: Averaged Metar Reports

Daily Weather History Graph

Daily Weather History Graph

Search for Another Location

Airport or City:

Trip Planner

Search our weather history database for the weather conditions in past years. The results will help you decide how hot, cold, wet, or windy it might be!

Date:

Astronomy

Oct. 08, 2012 Rise Set
Actual Time 6:29 AM IST 6:06 PM IST
Civil Twilight 6:04 AM IST 6:31 PM IST
Nautical Twilight 5:36 AM IST 6:59 PM IST
Astronomical Twilight 5:08 AM IST 7:27 PM IST
Moon 12:02 AM IST (10/9) 1:14 PM IST (10/8)
Length of Visible Light 12h 26m
Length of Day
11h 37m
Waning Gibbous, 50% of the Moon is Illuminated
Oct 8
Waning Gibbous
Oct 8
Last Quarter
Oct 15
New
Oct 22
First Quarter
Oct 30
Full

Hourly Weather History & Observations

Time (IST) Temp. Heat Index Dew Point Humidity Pressure Visibility Wind Dir Wind Speed Gust Speed Precip Events Conditions
12:30 AM 75.2 °F - 71.6 °F 89% 29.89 in 1.9 mi Calm Calm - N/A   Mist
1:30 AM 75.2 °F - 71.6 °F 89% 29.89 in 1.9 mi Calm Calm - N/A   Mist
2:00 AM 75.2 °F - 71.6 °F 89% 29.89 in 1.9 mi Calm Calm - N/A   Mist
2:30 AM 74 °F - 72 °F 93% 29.84 in 1 mi Calm Calm - -   Mist
3:00 AM 73.4 °F - 71.6 °F 94% 29.86 in 1.9 mi Calm Calm - N/A   Mist
4:00 AM 73.4 °F - 71.6 °F 94% 29.86 in 1.9 mi Calm Calm - N/A   Mist
6:00 AM 71.6 °F - 71.6 °F 100% 29.86 in 1.9 mi Calm Calm - N/A   Mist
8:30 AM 73 °F - 72 °F 95% 29.87 in 1 mi Calm Calm - -   Mist
9:00 AM 75.2 °F - 69.8 °F 83% 29.89 in 1.9 mi Calm Calm - N/A   Mist
11:00 AM 80.6 °F 83.9 °F 69.8 °F 70% 29.92 in 2.5 mi West 4.6 mph - N/A   Haze
11:30 AM 83 °F - 68 °F 51% 29.88 in 2 mi West 4.6 mph - -   Haze
12:00 PM 84.2 °F 87.3 °F 68.0 °F 58% 29.92 in 2.5 mi West 3.5 mph - N/A   Haze
12:30 PM 84.2 °F 87.3 °F 68.0 °F 58% 29.89 in 2.5 mi WSW 4.6 mph - N/A   Haze
1:30 PM 86.0 °F 88.2 °F 66.2 °F 51% 29.86 in 2.2 mi WSW 5.8 mph - N/A   Haze
2:00 PM 87.8 °F 91.4 °F 68.0 °F 52% 29.86 in 2.2 mi WSW 5.8 mph - N/A   Haze
2:30 PM 89 °F - 60 °F 27% 29.81 in 2 mi WSW 5.8 mph - -   Smoke
4:00 PM 89.6 °F 88.9 °F 59.0 °F 36% 29.83 in 3.1 mi WSW 5.8 mph - N/A   Smoke
4:30 PM 89.6 °F 88.9 °F 59.0 °F 36% 29.83 in 3.7 mi WSW 5.8 mph - N/A   Unknown
5:00 PM 89.6 °F 88.9 °F 59.0 °F 36% 29.83 in 3.7 mi WSW 5.8 mph - N/A   Unknown
5:30 PM 88 °F - 62 °F 31% 29.83 in 2 mi West 3.5 mph - -  
5:30 PM 87.8 °F 87.6 °F 60.8 °F 40% 29.83 in 3.7 mi West 3.5 mph - N/A   Unknown
6:00 PM 86.0 °F 86.6 °F 62.6 °F 45% 29.83 in 3.7 mi Variable 2.3 mph - N/A   Unknown
7:00 PM 82.4 °F 83.9 °F 64.4 °F 54% 29.83 in 3.1 mi Calm Calm - N/A   Haze
7:30 PM 82.4 °F 84.6 °F 66.2 °F 58% 29.83 in 3.1 mi Calm Calm - N/A   Haze
8:30 PM 80 °F - 71 °F 66% 29.83 in 2 mi Calm Calm - -   Haze
9:00 PM 78.8 °F - 69.8 °F 74% 29.86 in 2.5 mi Calm Calm - N/A   Haze
9:30 PM 77.0 °F - 68.0 °F 74% 29.86 in 2.5 mi Calm Calm - N/A   Haze
10:00 PM 77.0 °F - 68.0 °F 74% 29.86 in 2.5 mi Calm Calm - N/A   Haze
11:30 PM 76 °F - 69 °F 73% 29.84 in 1 mi Calm Calm - -   Mist
11:30 PM 75.2 °F - 69.8 °F 83% 29.86 in 1.9 mi Calm Calm - N/A   Haze